Weather History for South St. Paul, MN

Change the Weather History Date:

Saturday, March 9, 2013

  Actual Average (KMSP) Record (KMSP)
Temperature  
Mean Temperature 34 °F 30 °F  
Max Temperature 36 °F 38 °F 61 °F (1879)
Min Temperature 33 °F 22 °F -10 °F (2003)
Degree Days  
Heating Degree Days 30 35  
Month to date heating degree days 334  
Since 1 July heating degree days 6124  
Cooling Degree Days 0 0  
Month to date cooling degree days 0  
Year to date cooling degree days 0  
Moisture  
Dew Point 34 °F    
Average Humidity 96    
Maximum Humidity 99    
Minimum Humidity 72    
Precipitation  
Precipitation 0.46 in 0.05 in 0.84 in (1918)
Month to date precipitation 0.46  
Year to date precipitation 2.13  
Snow  
Snow 0.00 in 0.40 in 10.90 in (1918)
Month to date snowfall 3.7  
Since 1 July snowfall 45.4  
Snow Depth -    
Sea Level Pressure  
Sea Level Pressure 29.84 in    
Wind  
Wind Speed 5 mph (SE)    
Max Wind Speed 12 mph    
Max Gust Speed 17 mph    
Visibility 3 miles    
Events Fog , Rain    
T = Trace of Precipitation, MM = Missing Value Source: NWS Daily Summary

Daily Weather History Graph

Daily Weather History Graph

Search for Another Location

Airport:

Trip Planner

Search our weather history database for the weather conditions in past years. The results will help you decide how hot, cold, wet, or windy it might be!

Date:

Astronomy

Mar. 09, 2013 Rise Set
Actual Time 6:35 AM CST 6:10 PM CST
Civil Twilight 6:05 AM CST 6:39 PM CST
Nautical Twilight 5:32 AM CST 7:13 PM CST
Astronomical Twilight 4:57 AM CST 7:48 PM CST
Moon 5:03 AM CST (3/9) 4:10 PM CST (3/9)
Length of Visible Light 12h 34m
Length of Day
11h 35m
Waning Crescent, 5% of the Moon is Illuminated
Mar 9
Waning Crescent
Mar 11
New
Mar 19
First Quarter
Mar 27
Full
Apr 2
Last Quarter

Hourly Weather History & Observations

Time (CST) Temp. Windchill Dew Point Humidity Pressure Visibility Wind Dir Wind Speed Gust Speed Precip Events Conditions
12:12 AM 35.8 °F 30.9 °F 27.5 °F 72% 30.09 in 10.0 mi SSE 5.8 mph - N/A   Overcast
12:32 AM 35.8 °F 31.9 °F 27.5 °F 72% 30.09 in 10.0 mi SSE 4.6 mph - N/A   Overcast
12:52 AM 35.6 °F 32.8 °F 27.7 °F 73% 30.09 in 10.0 mi SSE 3.5 mph - N/A   Overcast
1:12 AM 35.6 °F 32.8 °F 27.9 °F 73% 30.08 in 7.0 mi SSE 3.5 mph - N/A   Overcast
1:32 AM 35.2 °F 30.3 °F 28.0 °F 75% 30.08 in 7.0 mi SE 5.8 mph - N/A Rain Light Rain
1:52 AM 34.7 °F 30.6 °F 28.8 °F 79% 30.07 in 7.0 mi SE 4.6 mph - N/A Rain Light Rain
2:12 AM 34.2 °F 28.2 °F 29.8 °F 84% 30.05 in 4.0 mi SE 6.9 mph - 0.01 in Rain Light Rain
2:32 AM 33.8 °F 28.6 °F 30.7 °F 89% 30.04 in 3.0 mi SE 5.8 mph - 0.04 in Rain Light Rain
2:52 AM 33.3 °F 27.9 °F 31.3 °F 92% 30.02 in 3.0 mi SSE 5.8 mph - 0.07 in Rain Light Rain
3:12 AM 33.3 °F 28.9 °F 31.6 °F 94% 30.01 in 2.5 mi SE 4.6 mph - 0.02 in Rain Light Rain
3:32 AM 33.3 °F 28.9 °F 32.0 °F 95% 30.00 in 2.5 mi SE 4.6 mph - 0.05 in Rain Light Rain
3:52 AM 33.4 °F 29.1 °F 32.0 °F 94% 29.98 in 2.5 mi SE 4.6 mph - 0.09 in Rain Light Rain
4:12 AM 33.8 °F 29.6 °F 32.2 °F 94% 29.97 in 2.5 mi SE 4.6 mph - 0.03 in Rain Light Rain
4:32 AM 33.8 °F 27.7 °F 32.5 °F 95% 29.96 in 2.5 mi SE 6.9 mph - 0.05 in Rain Light Rain
4:52 AM 34.0 °F 28.0 °F 32.9 °F 96% 29.95 in 2.0 mi SE 6.9 mph - 0.09 in Rain Light Rain
5:12 AM 34.2 °F 26.8 °F 33.3 °F 97% 29.95 in 2.5 mi SE 9.2 mph - 0.01 in Rain Light Rain
5:32 AM 34.3 °F 27.7 °F 33.4 °F 97% 29.94 in 3.0 mi SSE 8.1 mph - 0.02 in Rain Light Rain
5:52 AM 34.7 °F 27.5 °F 33.8 °F 97% 29.94 in 3.0 mi SSE 9.2 mph 16.1 mph 0.04 in Rain Light Rain
6:12 AM 34.7 °F 26.4 °F 34.0 °F 97% 29.94 in 3.0 mi SSE 11.5 mph - 0.01 in   Light Drizzle
6:32 AM 34.7 °F 28.1 °F 34.0 °F 97% 29.93 in 3.0 mi SSE 8.1 mph - 0.02 in Rain Light Rain
6:52 AM 34.7 °F 28.1 °F 34.2 °F 98% 29.92 in 4.0 mi SSE 8.1 mph 17.3 mph 0.02 in   Overcast
7:12 AM 34.7 °F 26.9 °F 34.2 °F 98% 29.91 in 4.0 mi SSE 10.4 mph - N/A   Overcast
7:32 AM 34.7 °F 27.5 °F 34.2 °F 98% 29.90 in 3.0 mi SSE 9.2 mph 16.1 mph N/A   Overcast
7:52 AM 34.9 °F 27.7 °F 34.3 °F 98% 29.89 in 3.0 mi SSE 9.2 mph - N/A   Mist
8:12 AM 35.1 °F 29.3 °F 34.7 °F 99% 29.89 in 3.0 mi SSE 6.9 mph - N/A   Overcast
8:32 AM 35.2 °F 29.5 °F 34.9 °F 99% 29.88 in 4.0 mi SSE 6.9 mph - N/A   Overcast
8:52 AM 35.2 °F 28.1 °F 34.9 °F 99% 29.86 in 4.0 mi SSE 9.2 mph - N/A   Overcast
9:12 AM 35.2 °F 29.5 °F 34.9 °F 99% 29.85 in 4.0 mi SSE 6.9 mph - N/A   Overcast
9:32 AM 35.2 °F 28.8 °F 34.9 °F 99% 29.85 in 4.0 mi SSE 8.1 mph - N/A   Overcast
9:52 AM 35.6 °F 31.7 °F 35.1 °F 98% 29.85 in 4.0 mi SE 4.6 mph - N/A   Overcast
10:12 AM 35.6 °F 30.7 °F 35.2 °F 99% 29.85 in 4.0 mi SSE 5.8 mph - N/A   Overcast
10:32 AM 35.8 °F 30.9 °F 35.6 °F 99% 29.84 in 3.0 mi SSE 5.8 mph - N/A   Overcast
10:52 AM 35.8 °F 30.9 °F 35.6 °F 99% 29.83 in 1.8 mi SE 5.8 mph - N/A   Overcast
11:12 AM 35.8 °F 31.9 °F 35.6 °F 99% 29.82 in 1.2 mi SSE 4.6 mph - N/A   Overcast
11:32 AM 36.0 °F 31.1 °F 35.6 °F 99% 29.82 in 1.0 mi SE 5.8 mph - 0.01 in   Overcast
11:52 AM 36.1 °F 32.3 °F 35.8 °F 99% 29.81 in 1.2 mi SE 4.6 mph - 0.01 in   Overcast
12:12 PM 36.5 °F 32.7 °F 36.0 °F 98% 29.79 in 1.8 mi SE 4.6 mph - N/A   Overcast
12:32 PM 36.5 °F 32.7 °F 36.0 °F 98% 29.78 in 2.5 mi SE 4.6 mph - N/A   Light Drizzle
12:52 PM 36.5 °F 32.7 °F 36.1 °F 99% 29.77 in 3.0 mi SE 4.6 mph - 0.02 in Rain Light Rain
1:12 PM 36.5 °F 31.8 °F 36.1 °F 99% 29.78 in 4.0 mi SSE 5.8 mph - 0.01 in Rain Rain
1:32 PM 36.5 °F 31.8 °F 36.1 °F 99% 29.76 in 3.0 mi SE 5.8 mph - 0.02 in Rain Rain
1:52 PM 36.5 °F 31.8 °F 36.1 °F 99% 29.74 in 3.0 mi SE 5.8 mph - 0.03 in Rain Light Rain
2:12 PM 36.5 °F 32.7 °F 36.1 °F 99% 29.73 in 3.0 mi SE 4.6 mph - 0.01 in Rain Light Rain
2:32 PM 36.5 °F 33.9 °F 36.1 °F 99% 29.73 in 3.0 mi SSE 3.5 mph - 0.03 in Rain Light Rain
2:52 PM 36.5 °F 32.7 °F 36.1 °F 99% 29.72 in 3.0 mi SE 4.6 mph - 0.05 in Rain Light Rain
3:12 PM 36.5 °F 32.7 °F 36.1 °F 99% 29.72 in 4.0 mi SSE 4.6 mph - N/A Rain Light Rain
3:32 PM 36.7 °F 32.9 °F 36.3 °F 99% 29.72 in 4.0 mi SSE 4.6 mph - 0.01 in   Light Drizzle
3:52 PM 36.7 °F 32.9 °F 36.3 °F 99% 29.71 in 4.0 mi SSE 4.6 mph - 0.02 in Rain Light Rain
4:12 PM 36.7 °F 32.0 °F 36.5 °F 99% 29.71 in 3.0 mi SE 5.8 mph - N/A   Light Drizzle
4:32 PM 36.5 °F 32.7 °F 36.3 °F 99% 29.70 in 3.0 mi SE 4.6 mph - N/A   Overcast
4:52 PM 36.7 °F 32.9 °F 36.3 °F 99% 29.71 in 4.0 mi SE 4.6 mph - N/A   Overcast
5:12 PM 36.7 °F 32.9 °F 36.3 °F 99% 29.71 in 4.0 mi SSE 4.6 mph - N/A   Overcast
5:32 PM 36.7 °F 34.1 °F 36.5 °F 99% 29.71 in 4.0 mi SSE 3.5 mph - N/A   Overcast
5:52 PM 36.5 °F - 36.1 °F 99% 29.71 in 2.5 mi Calm Calm - N/A   Overcast
6:12 PM 36.5 °F - 36.1 °F 99% 29.71 in 4.0 mi Calm Calm - N/A   Overcast
6:32 PM 36.5 °F - 36.1 °F 99% 29.70 in 3.0 mi Calm Calm - N/A   Light Drizzle
6:52 PM 36.3 °F - 36.0 °F 99% 29.71 in 3.0 mi Calm Calm - 0.01 in   Overcast
7:12 PM 35.8 °F - 35.6 °F 99% 29.72 in 1.2 mi Calm Calm - N/A   Overcast
7:32 PM 36.1 °F - 35.8 °F 99% 29.73 in 1.8 mi Calm Calm - N/A   Light Drizzle
7:52 PM 36.1 °F - 35.8 °F 99% 29.73 in 2.0 mi Calm Calm - N/A   Light Drizzle
8:12 PM 36.3 °F - 36.0 °F 99% 29.73 in 2.0 mi Calm Calm - N/A   Overcast
8:32 PM 36.1 °F - 35.8 °F 99% 29.73 in 1.8 mi Calm Calm - N/A   Overcast
8:52 PM 36.0 °F - 35.6 °F 99% 29.74 in 1.2 mi Calm Calm - N/A   Overcast
9:12 PM 36.0 °F - 35.6 °F 99% 29.74 in 0.8 mi Calm Calm - N/A   Overcast
9:32 PM 35.6 °F - 35.2 °F 99% 29.75 in 0.5 mi Calm Calm - N/A Fog Fog
9:52 PM 36.1 °F - 35.8 °F 99% 29.75 in 1.5 mi Calm Calm - N/A   Overcast
10:12 PM 35.2 °F - 35.1 °F 99% 29.75 in 0.5 mi Calm Calm - N/A Fog Fog
10:32 PM 35.8 °F - 35.6 °F 99% 29.77 in 1.2 mi Calm Calm - N/A   Overcast
10:52 PM 35.6 °F - 35.2 °F 99% 29.78 in 1.5 mi Calm Calm - N/A   Overcast
11:12 PM 35.6 °F - 35.4 °F 99% 29.77 in 1.2 mi Calm Calm - N/A   Light Drizzle
11:32 PM 35.6 °F - 35.1 °F 98% 29.77 in 0.8 mi Calm Calm - N/A Rain Light Rain
11:52 PM 35.8 °F - 35.6 °F 99% 29.77 in 1.0 mi Calm Calm - 0.01 in Rain Light Rain